| time (UTC) | temp F | wind direction | speed MPH | gust MPH | rain 1hr in | rain 24hr in | rain mn in | humidity % | barometer mb |
| 20260504140953 | 78 | 45 | 1.0 | 2.0 | 0.00 | 0.00 | 0.00 | 89 | 1015.2 |
| 20260504140456 | 79 | 68 | 1.0 | 2.0 | 0.00 | 0.00 | 0.00 | 88 | 1014.9 |
| 20260504130453 | 80 | 45 | 2.0 | 2.0 | 0.00 | 0.00 | 0.00 | 85 | 1014.6 |
| 20260504110453 | 82 | 68 | 4.0 | 6.0 | 0.00 | 0.00 | 0.00 | 85 | 1013.9 |
| 20260504100453 | 83 | 68 | 8.0 | 10.0 | 0.00 | 0.00 | 0.00 | 82 | 1012.9 |
| 20260504081953 | 87 | 45 | 12.0 | 19.0 | 0.00 | 0.00 | 0.00 | 73 | 1012.2 |
| 20260504081453 | 87 | 113 | 9.0 | 12.0 | 0.00 | 0.00 | 0.00 | 74 | 1012.5 |
| 20260504080953 | 87 | 68 | 7.0 | 10.0 | 0.00 | 0.00 | 0.00 | 74 | 1012.2 |
| 20260504080454 | 87 | 45 | 12.0 | 15.0 | 0.00 | 0.00 | 0.00 | 75 | 1012.2 |
| 20260504050454 | 93 | 45 | 3.0 | 4.0 | 0.00 | 0.00 | 0.00 | 59 | 1013.9 |
| 20260504045953 | 93 | 68 | 4.0 | 5.0 | 0.00 | 0.00 | 0.00 | 61 | 1013.9 |
| 20260504045453 | 93 | 68 | 5.0 | 8.0 | 0.00 | 0.00 | 0.00 | 61 | 1013.9 |
| 20260504044953 | 92 | 90 | 5.0 | 7.0 | 0.00 | 0.00 | 0.00 | 57 | 1013.9 |
| 20260504044453 | 92 | 68 | 9.0 | 15.0 | 0.00 | 0.00 | 0.00 | 61 | 1014.2 |
| 20260504043953 | 92 | 45 | 9.0 | 11.0 | 0.00 | 0.00 | 0.00 | 61 | 1014.2 |
| 20260504043453 | 92 | 68 | 7.0 | 9.0 | 0.00 | 0.00 | 0.00 | 59 | 1014.2 |
| 20260504042954 | 92 | 90 | 6.0 | 7.0 | 0.00 | 0.00 | 0.00 | 59 | 1014.2 |
| 20260504042454 | 91 | 113 | 7.0 | 8.0 | 0.00 | 0.00 | 0.00 | 60 | 1014.6 |
| 20260504041953 | 92 | 45 | 9.0 | 12.0 | 0.00 | 0.00 | 0.00 | 60 | 1014.6 |
| 20260504041453 | 92 | 90 | 7.0 | 10.0 | 0.00 | 0.00 | 0.00 | 61 | 1014.6 |
| 20260504040955 | 91 | 68 | 10.0 | 15.0 | 0.00 | 0.00 | 0.00 | 63 | 1014.6 |
| 20260504040453 | 92 | 68 | 8.0 | 10.0 | 0.00 | 0.00 | 0.00 | 61 | 1014.6 |
| 20260504035953 | 92 | 113 | 3.0 | 4.0 | 0.00 | 0.00 | 0.00 | 63 | 1014.9 |
| 20260504035454 | 91 | 45 | 8.0 | 10.0 | 0.00 | 0.00 | 0.00 | 62 | 1014.9 |
| 20260504034954 | 92 | 90 | 6.0 | 7.0 | 0.00 | 0.00 | 0.00 | 65 | 1015.2 |
| 20260504034453 | 91 | 90 | 6.0 | 10.0 | 0.00 | 0.00 | 0.00 | 68 | 1015.2 |
| 20260504033953 | 92 | 90 | 8.0 | 10.0 | 0.00 | 0.00 | 0.00 | 66 | 1014.9 |
| 20260504033456 | 90 | 68 | 5.0 | 6.0 | 0.00 | 0.00 | 0.00 | 68 | 1015.2 |
| 20260504032953 | 90 | 90 | 7.0 | 10.0 | 0.00 | 0.00 | 0.00 | 67 | 1015.2 |
| 20260504032453 | 90 | 45 | 3.0 | 5.0 | 0.00 | 0.00 | 0.00 | 69 | 1015.2 |
| 20260504031953 | 90 | 68 | 2.0 | 3.0 | 0.00 | 0.00 | 0.00 | 69 | 1015.2 |
| 20260504031453 | 89 | 90 | 8.0 | 10.0 | 0.00 | 0.00 | 0.00 | 69 | 1015.2 |
| 20260504030953 | 90 | 68 | 7.0 | 8.0 | 0.00 | 0.00 | 0.00 | 67 | 1015.2 |
| 20260504030453 | 90 | 90 | 11.0 | 13.0 | 0.00 | 0.00 | 0.00 | 65 | 1015.2 |
| 20260504025953 | 92 | 45 | 6.0 | 8.0 | 0.00 | 0.00 | 0.00 | 66 | 1015.2 |
| 20260504025453 | 89 | 45 | 7.0 | 10.0 | 0.00 | 0.00 | 0.00 | 70 | 1015.6 |
| 20260504024953 | 91 | 68 | 9.0 | 13.0 | 0.00 | 0.00 | 0.00 | 66 | 1015.6 |
| 20260504024454 | 90 | 68 | 7.0 | 11.0 | 0.00 | 0.00 | 0.00 | 67 | 1015.6 |
| 20260504023954 | 92 | 113 | 1.0 | 2.0 | 0.00 | 0.00 | 0.00 | 66 | 1015.6 |
| 20260504023453 | 91 | 68 | 3.0 | 4.0 | 0.00 | 0.00 | 0.00 | 70 | 1015.6 |
| 20260504022953 | 91 | 68 | 7.0 | 7.0 | 0.00 | 0.00 | 0.00 | 68 | 1015.2 |
| 20260504022453 | 91 | 90 | 6.0 | 7.0 | 0.00 | 0.00 | 0.00 | 68 | 1015.6 |
| 20260504021953 | 91 | 68 | 7.0 | 10.0 | 0.00 | 0.00 | 0.00 | 67 | 1015.6 |
| 20260504021453 | 90 | 45 | 7.0 | 7.0 | 0.00 | 0.00 | 0.00 | 70 | 1015.6 |
| 20260504020954 | 91 | 68 | 6.0 | 8.0 | 0.00 | 0.00 | 0.00 | 68 | 1015.6 |
| 20260504020454 | 92 | 135 | 3.0 | 5.0 | 0.00 | 0.00 | 0.00 | 68 | 1015.6 |
| 20260504015953 | 91 | 68 | 3.0 | 5.0 | 0.00 | 0.00 | 0.00 | 67 | 1015.6 |
| 20260504015454 | 90 | 90 | 3.0 | 5.0 | 0.00 | 0.00 | 0.00 | 72 | 1015.6 |
| 20260504014954 | 90 | 45 | 7.0 | 8.0 | 0.00 | 0.00 | 0.00 | 70 | 1015.9 |
| 20260504014453 | 90 | 90 | 8.0 | 10.0 | 0.00 | 0.00 | 0.00 | 70 | 1015.9 |
| 20260504013953 | 90 | 68 | 5.0 | 8.0 | 0.00 | 0.00 | 0.00 | 71 | 1015.9 |
| 20260504013453 | 89 | 158 | 5.0 | 8.0 | 0.00 | 0.00 | 0.00 | 72 | 1015.9 |
| 20260504012953 | 89 | 68 | 6.0 | 8.0 | 0.00 | 0.00 | 0.00 | 73 | 1015.9 |
| 20260504012453 | 89 | 68 | 6.0 | 8.0 | 0.00 | 0.00 | 0.00 | 73 | 1015.9 |
| 20260504011953 | 89 | 68 | 3.0 | 5.0 | 0.00 | 0.00 | 0.00 | 73 | 1015.9 |
| 20260504011453 | 88 | 68 | 6.0 | 7.0 | 0.00 | 0.00 | 0.00 | 74 | 1015.6 |
| 20260504010953 | 89 | 45 | 3.0 | 5.0 | 0.00 | 0.00 | 0.00 | 73 | 1015.6 |
| 20260504010453 | 88 | 68 | 8.0 | 10.0 | 0.00 | 0.00 | 0.00 | 74 | 1015.6 |
| 20260504005953 | 89 | 113 | 4.0 | 8.0 | 0.00 | 0.00 | 0.00 | 73 | 1015.6 |
| 20260504005453 | 88 | 90 | 2.0 | 2.0 | 0.00 | 0.00 | 0.00 | 73 | 1015.6 |
| 20260504004953 | 88 | 90 | 7.0 | 9.0 | 0.00 | 0.00 | 0.00 | 72 | 1015.6 |
| 20260504004454 | 87 | 23 | 6.0 | 7.0 | 0.00 | 0.00 | 0.00 | 74 | 1015.6 |
| 20260504003954 | 87 | 113 | 4.0 | 5.0 | 0.00 | 0.00 | 0.00 | 75 | 1015.6 |
| 20260504003454 | 86 | 45 | 6.0 | 9.0 | 0.00 | 0.00 | 0.00 | 75 | 1015.6 |
| 20260504002953 | 88 | 68 | 2.0 | 2.0 | 0.00 | 0.00 | 0.00 | 74 | 1015.6 |
| 20260504002454 | 87 | 90 | 3.0 | 5.0 | 0.00 | 0.00 | 0.00 | 76 | 1015.6 |
| 20260504001955 | 85 | 135 | 0.0 | 1.0 | 0.00 | 0.00 | 0.00 | 77 | 1015.6 |
| 20260504001453 | 86 | 113 | 2.0 | 3.0 | 0.00 | 0.00 | 0.00 | 77 | 1015.6 |
| 20260504000953 | 85 | 90 | 2.0 | 4.0 | 0.00 | 0.00 | 0.00 | 77 | 1015.2 |
| 20260504000454 | 85 | 68 | 3.0 | 5.0 | 0.00 | 0.00 | 0.00 | 77 | 1015.2 |